This is the latest recevied weather packets stored in our database for station/object KE8ZLU. If no packets are shown the sender has not sent any weather packets the latest 1 day(s).
| Time | Temp. | Humidity | Pressure | Rain* | Wind** | Luminosity | Snow |
|---|---|---|---|---|---|---|---|
| 1778074428 | 7.22° C | 62% | 1013.6 hPa | 0 mm | - | 240 W/m² | - |
| 1778074125 | 7.22° C | 62% | 1013.8 hPa | 0 mm | - | 240 W/m² | - |
| 1778073822 | 7.22° C | 61% | 1013.6 hPa | 0 mm | - | 184 W/m² | - |
| 1778073216 | 7.22° C | 62% | 1013.5 hPa | 0 mm | - | 322 W/m² | - |
| 1778072006 | 6.11° C | 68% | 1013.5 hPa | 0 mm | - | 182 W/m² | - |
| 1778071704 | 6.11° C | 68% | 1013.3 hPa | 0 mm | - | 182 W/m² | - |
| 1778071098 | 6.11° C | 68% | 1013.1 hPa | 0 mm | - | 182 W/m² | - |
| 1778070797 | 6.11° C | 68% | 1013.1 hPa | 0 mm | - | 182 W/m² | - |
| 1778069888 | 6.11° C | 69% | 1013 hPa | 0 mm | - | 129 W/m² | - |
| 1778069585 | 6.11° C | 69% | 1012.6 hPa | 0 mm | - | 129 W/m² | - |
| 1778067166 | 5° C | 73% | 1012.2 hPa | 0 mm | - | 47 W/m² | - |
| 1778066560 | 5.56° C | 72% | 1012.3 hPa | 0 mm | - | 49 W/m² | - |
| 1778066257 | 5° C | 74% | 1012 hPa | 0 mm | - | 58 W/m² | - |
| 1778065046 | 3.89° C | 76% | 1012 hPa | 0 mm | - | 17 W/m² | - |
| 1778064441 | 3.89° C | 76% | 1011.7 hPa | 0 mm | - | 10 W/m² | - |
| 1778064138 | 3.89° C | 76% | 1011.6 hPa | 0 mm | - | 8 W/m² | - |
| 1778063835 | 3.89° C | 77% | 1011.6 hPa | 0 mm | - | 6 W/m² | - |
| 1778063532 | 3.89° C | 77% | 1011.5 hPa | 0 mm | - | 4 W/m² | - |
| 1778062928 | 3.89° C | 77% | 1011.4 hPa | 0 mm | - | 1 W/m² | - |
| 1778062321 | 3.89° C | 78% | 1011.5 hPa | 0 mm | - | 0 W/m² | - |
| 1778061717 | 3.89° C | 77% | 1011.6 hPa | 0 mm | - | 0 W/m² | - |
| 1778061415 | 4.44° C | 77% | 1011.4 hPa | 0 mm | - | 0 W/m² | - |
| 1778060809 | 5° C | 71% | 1011.3 hPa | 0 mm | - | 0 W/m² | - |
| 1778060507 | 5° C | 70% | 1011.3 hPa | 0 mm | - | 0 W/m² | - |
| 1778059902 | 5.56° C | 71% | 1011 hPa | 0 mm | - | 0 W/m² | - |
* Rain latest hour (hover to see other rain measurements)
** Current wind speed in m/s (hover to see current wind gust speed)